Terminal Aerodrome Forecast
Issued by NWS

Home | Current Version | Previous Version | Text Only | Print | Product List | Glossary On
Versions: 1 2 3 4 5 6 7 8 9 10 11 12 13 14 15 16 17 18 19 20 21 22 23 24 25 26 27 28 29 30 31 32 33 34 35 36 37 38 39 40 41 42 43 44 45 46 47
000
FTUS44 KHGX 172333
TAFLBX
TAF
KLBX 172333Z 1800/1824 08006KT P6SM VCSH FEW030 BKN100
     FM180800 18003KT 6SM BR VCSH FEW008 BKN025 OVC250
     FM181400 09006KT P6SM VCTS SCT025CB BKN040 BKN250=

USA.gov is the U.S. government's official web portal to all federal, state and local government web resources and services.